Flag for Tunisia Weather past 2 weeks in Sfax, Tunisia

Now
66 °F

Clear.


Feels Like: 66 °F
Forecast: 68 / 83 °F
Wind: 5 mph from Northwest

Location: Sfax El-Maou

Current Time: Oct 21, 2014 at 4:50:45 AM

Latest Report: Oct 21, 2014 at 2:00 AM


Visibility: 5 mi

Pressure: 30.09 "Hg

Humidity: 83%

Dew point: 61 °F

Location of SfaxLocation

Historic Weather in Sfax — Graph

°F

Sfax temperature yesterday

Maximum temperature yesterday: 82 °F (at 12:00 PM)
Minimum temperature yesterday: 64 °F (at 7:00 AM)
Average temperature yesterday: 73 °F

Past Weeks' High & Low Weather Summary

 TemperatureHumidityPressure
High91 °F (Oct 8, 2:00 PM)100% (Oct 18, 4:00 AM)30.21 "Hg (Oct 18, 4:00 AM)
Low64 °F (Oct 6, 6:00 AM)27% (Oct 8, 10:00 AM)29.71 "Hg (Oct 15, 3:00 AM)
Average78 °F66%30.03 "Hg
* Reported Oct 6 2:00 AM — Oct 21 2:00 AM, Sfax, Weather by CustomWeather, © 2014

Note: Actual official high and low records may vary slightly from our data, if they occured in-between our weather recording intervals... More about our weather records

Advertising

Sfax weather history for previous 24 hours

 ConditionsComfort  
Time TempWeatherWind HumidityBarometerVisibility
2:00 AM
Oct 21
66 °FClear.5 mph83%30.09 "Hg5 mi
12:00 AM68 °FClear.3 mph83%30.09 "Hg5 mi
11:00 PM
Oct 20
70 °FClear.3 mph78%30.12 "Hg5 mi
10:00 PM72 °FClear.3 mph78%30.12 "Hg5 mi
9:00 PM73 °FClear.2 mph74%30.12 "Hg10 mi
8:00 PM75 °FPassing clouds.3 mph69%30.12 "HgN/A
7:00 PM75 °FPassing clouds.3 mph74%30.12 "HgN/A
6:00 PM75 °FPassing clouds.5 mph69%30.09 "HgN/A
4:00 PM79 °FPassing clouds.9 mph61%30.09 "HgN/A
3:00 PM81 °FPassing clouds.8 mph58%30.12 "HgN/A
2:00 PM81 °FScattered clouds.9 mph58%30.12 "Hg5 mi
1:00 PM81 °FScattered clouds.9 mph58%30.15 "Hg5 mi
12:00 PM82 °FPassing clouds.2 mph45%30.18 "Hg5 mi
11:00 AM81 °FScattered clouds.2 mph58%30.21 "Hg4 mi
10:00 AM77 °FScattered clouds.3 mph69%30.21 "Hg4 mi
9:00 AM75 °FPassing clouds.5 mph74%30.21 "Hg3 mi
8:00 AM68 °FFog.3 mph94%30.21 "Hg2 mi
7:00 AM64 °FFog.5 mph94%30.18 "Hg2 mi
6:00 AM66 °FClear.6 mph94%30.18 "Hg3 mi
4:00 AM68 °FClear.5 mph88%30.18 "Hg5 mi
Weather by CustomWeather, © 2014

See weather overviewHow to use our weather pages